Location: Gleizolles
(44.4833°N, 6.7667°E)
Time: 11:46:56
(UTC+00:00)

A-11 Canister half - Pass Details

Date: 20 June 2024
Orbit: 1515 x 1684 km, 47.2° (Epoch: 24 July)

Event Time Altitude Azimuth Distance (km) Brightness Sun altitude
Rises 19:47:36 0° 263° (W) 4,922 12.4 -4.6°
Reaches altitude 10° 19:50:48 10° 264° (W) 3,923 11.8 -5.0°
Maximum altitude 20:00:54 78° 352° (N) 1,665 9.3 -6.4°
Drops below altitude 10° 20:10:40 10° 79° (E) 3,801 10.7 -7.6°
Sets 20:13:43 0° 81° (E) 4,764 11.2 -8.0°
